This is the latest recevied weather packets stored in our database for station/object AA7VG. If no packets are shown the sender has not sent any weather packets the latest 10 day(s).
| Time | Temp. | Humidity | Pressure | Rain* | Wind** | Luminosity | Snow |
|---|---|---|---|---|---|---|---|
| 1788622637 | 15° C | 61% | 1018.6 hPa | 0 mm | - | - | - |
| 1788622332 | 13.89° C | 64% | 1018.9 hPa | 0 mm | - | - | - |
| 1788622027 | 13.33° C | 66% | 1018.9 hPa | 0 mm | - | - | - |
| 1788621721 | 13.89° C | 65% | 1018.8 hPa | 0 mm | - | - | - |
| 1788621421 | 13.33° C | 67% | 1019.2 hPa | 0 mm | - | - | - |
| 1788621117 | 12.78° C | 68% | 1018.6 hPa | 0 mm | - | - | - |
| 1788620812 | 12.78° C | 68% | 1018.9 hPa | 0 mm | - | - | - |
| 1788620510 | 12.78° C | 68% | 1018.8 hPa | 0 mm | - | - | - |
| 1788620208 | 12.22° C | 70% | 1018.8 hPa | 0 mm | - | - | - |
| 1788619903 | 12.22° C | 70% | 1018.7 hPa | 0 mm | - | - | - |
| 1788619597 | 11.67° C | 72% | 1018.7 hPa | 0 mm | - | - | - |
| 1788619297 | 12.22° C | 71% | 1018.6 hPa | 0 mm | - | - | - |
| 1788618996 | 11.67° C | 72% | 1018.7 hPa | 0 mm | - | - | - |
| 1788618692 | 11.67° C | 72% | 1018.7 hPa | 0 mm | - | - | - |
| 1788618390 | 11.67° C | 72% | 1018.6 hPa | 0 mm | - | - | - |
| 1788618091 | 11.67° C | 72% | 1018.7 hPa | 0 mm | - | - | - |
| 1788617791 | 11.67° C | 72% | 1018.5 hPa | 0 mm | - | - | - |
| 1788617487 | 11.67° C | 72% | 1018.4 hPa | 0 mm | - | - | - |
| 1788617182 | 11.67° C | 72% | 1018.5 hPa | 0 mm | - | - | - |
| 1788616881 | 11.11° C | 74% | 1018.4 hPa | 0 mm | - | - | - |
| 1788616576 | 10.56° C | 76% | 1018.4 hPa | 0 mm | - | - | - |
| 1788616272 | 10° C | 77% | 1018.3 hPa | 0 mm | - | - | - |
| 1788615967 | 10° C | 77% | 1018 hPa | 0 mm | - | - | - |
| 1788615669 | 10° C | 77% | 1018 hPa | 0 mm | - | - | - |
| 1788615361 | 10° C | 78% | 1017.9 hPa | 0 mm | - | - | - |
* Rain latest hour (hover to see other rain measurements)
** Current wind speed in m/s (hover to see current wind gust speed)